Location: Presov
(49.0000°N, 21.2500°E)
Time: 21:47:13
(UTC+02:00)

ISS - Pass Details

Date: 22 May 2025
Orbit: 415 x 416 km, 51.6° (Epoch: 16 June)

Event Time Altitude Azimuth Distance (km) Brightness Sun altitude
Rises 23:05:29 0° 282° (WNW) 2,359 0.5 -17.8°
Reaches altitude 10° 23:08:24 10° 254° (WSW) 1,490 -0.9 -18.0°
Enters shadow 23:09:21 13° 239° (WSW) 1,341 -1.3 -18.0°
